Temp
9 9 9 10 10 10 11 11 10 10 9 9 9 8 9 9 8 8 8 8 8 8 7 7 6 6 6 6 6 6 6 6 6 6 6 6 6 6 6 6 7 7 7 7 7 7 7 7 7
9 9 9 10 10 10 12 11 10 9 9 9 9 8 8 9 9 9 9 8 8 7 7 7 7 6 6 6 5 5 5 5 5 5 6 6 6 6 6 6 6 6 6 6 6 6 6 6 6
9 9 9 9 10 11 11 11 10 9 9 8 9 8 8 8 9 9 9 9 8 8 7 7 7 6 6 6 6 5 5 5 5 5 5 6 6 6 5 6 6 6 6 6 6 6 6 6 6
9 9 9 10 11 11 11 10 10 10 9 9 8 9 9 9 9 9 9 9 9 9 7 7 7 7 6 6 6 6 5 5 5 5 5 5 5 5 5 5 5 5 6 6 6 6 6 6 6
9 9 9 10 11 10 10 10 10 10 10 10 9 9 9 10 9 9 9 9 9 8 8 7 7 7 6 6 6 6 6 5 5 5 5 5 5 5 5 5 5 5 5 5 6 6 6 6 6
8 9 9 10 11 10 10 10 9 9 9 10 9 10 10 10 10 10 10 9 9 9 8 8 7 7 6 6 6 6 6 6 6 6 6 6 6 6 6 6 5 5 5 6 6 6 6 6 6
9 8 10 11 11 10 9 10 9 9 9 9 9 10 10 10 10 10 10 10 9 9 9 8 8 7 7 7 6 6 6 5 5 6 6 6 6 6 6 6 6 6 6 6 6 6 7 7 7
8 8 10 11 11 10 10 10 9 8 8 9 8 8 10 10 10 9 9 9 9 9 9 9 8 8 8 7 7 6 6 5 5 6 7 7 7 7 6 7 7 6 6 6 6 7 7 7 7
8 8 9 10 11 10 10 10 9 9 9 9 9 10 10 10 10 9 9 9 9 9 9 9 8 8 8 7 7 6 6 6 6 6 7 7 7 7 7 7 7 7 7 7 7 7 7 7 7
8 9 10 10 11 11 10 10 10 10 10 10 10 10 10 10 9 9 9 9 9 9 9 9 8 8 8 7 7 7 7 7 7 7 7 7 7 7 7 7 7 7 7 7 7 7 7 7 7
8 9 10 10 10 10 10 9 10 9 10 10 10 10 10 9 9 9 9 9 9 9 9 8 8 8 8 8 8 7 7 7 7 7 7 7 7 7 7 7 7 7 7 7 7 7 7 7 7
8 9 9 9 10 10 10 9 10 9 9 8 10 9 9 9 9 9 9 9 9 9 8 8 8 8 8 8 8 7 7 7 7 7 7 7 7 7 7 7 7 7 7 7 7 7 7 7 7
8 8 9 9 9 9 9 10 10 9 9 8 10 10 9 9 9 9 9 8 8 8 8 8 8 8 8 8 8 7 7 7 7 7 7 7 7 7 7 7 7 7 7 7 7 7 7 7 7
8 8 8 9 9 9 9 9 9 9 10 9 9 10 9 9 9 9 9 9 8 8 8 8 8 8 8 8 8 7 7 7 7 7 7 7 7 7 7 7 7 7 7 7 7 7 7 7 7
7 7 8 9 9 9 8 8 9 9 9 9 9 9 9 9 9 9 9 9 8 8 8 8 8 8 7 7 7 7 7 7 7 7 7 7 7 7 7 7 7 7 7 7 7 7 7 7 7
6 6 7 8 9 9 8 9 9 9 9 9 9 9 9 9 9 9 9 9 8 8 8 8 8 7 7 7 7 7 7 7 7 7 7 7 7 7 7 7 7 7 7 7 7 7 6 6 6
5 6 6 7 8 9 8 9 8 9 9 9 9 9 9 9 9 9 9 8 8 8 8 8 7 7 7 7 7 7 7 7 7 7 7 7 7 7 7 7 7 6 6 6 6 6 6 6 6
5 7 7 7 8 8 8 8 8 9 9 9 9 9 9 9 8 8 8 8 8 8 8 7 7 7 7 7 7 7 7 7 7 7 7 7 7 7 7 6 6 6 6 6 6 6 6 6 6
6 7 7 7 8 8 9 9 8 8 8 9 9 9 9 9 9 9 9 9 9 8 8 8 7 7 7 7 7 7 6 7 7 7 7 7 7 6 6 6 6 6 6 6 6 5 5 5 5
6 7 8 8 8 7 8 8 8 9 8 9 9 9 9 9 9 9 8 8 8 7 7 7 7 7 7 7 6 6 6 7 7 7 6 6 6 6 6 6 5 5 5 5 5 5 4 4 5
6 6 7 8 7 7 7 6 6 7 7 8 9 9 9 9 9 8 8 8 8 7 7 7 7 7 6 6 6 6 7 7 6 6 6 6 5 5 5 5 5 5 4 5 5 4 4 4 4
5 7 7 7 7 6 7 5 7 8 9 9 8 8 8 8 8 8 8 8 8 8 8 7 7 7 7 6 6 6 6 6 6 6 5 5 5 4 4 5 4 4 4 4 4 4 4 4 4
4 6 6 6 7 7 6 6 8 9 8 9 9 9 9 8 8 9 9 8 8 8 8 7 7 7 7 6 6 5 5 5 6 5 5 4 4 4 4 4 4 4 4 4 4 4 3 3 3
4 5 6 5 5 3 6 6 8 8 9 9 9 9 9 9 9 9 9 9 8 8 7 7 7 7 7 6 6 5 5 5 5 4 4 4 4 4 4 4 4 4 3 3 3 3 2 2 2
3 5 2 1 1 1 6 6 7 8 9 9 9 9 9 9 9 9 9 9 9 9 8 7 7 6 6 6 5 5 5 5 4 3 3 3 3 3 3 3 3 3 3 2 2 2 2 2 2
3 4 3 -0 -0 2 6 5 7 8 7 8 9 9 9 9 9 9 9 9 9 9 8 7 6 6 6 5 5 5 4 3 3 3 3 3 2 3 3 3 2 2 2 2 2 2 2 2 2
3 4 5 5 5 5 6 6 6 7 8 8 8 8 9 10 10 9 9 9 9 8 8 8 7 6 5 5 5 4 4 3 3 2 2 2 2 2 2 2 1 1 1 1 1 1 1 1 1
4 4 4 5 1 2 5 7 7 7 8 8 9 9 9 9 10 9 9 9 9 8 8 7 7 6 5 5 4 4 3 3 2 2 1 2 1 1 1 1 1 1 0 0 1 1 1 1 1
2 3 4 5 5 -0 1 4 7 8 8 9 9 9 9 9 9 9 9 8 8 8 7 6 6 6 5 4 4 3 3 2 2 2 1 1 1 1 0 0 0 0 0 1 1 1 1 1 -0
3 4 4 5 4 6 6 6 7 8 8 8 8 8 8 9 8 8 8 8 8 7 6 6 5 5 5 4 4 3 3 2 1 1 1 1 1 0 -0 -0 -0 0 0 0 0 0 -0 -1 -1
Height
3138 3141 3142 3144 3149 3144 3143 3145 3146 3148 3149 3150 3151 3152 3154 3155 3155 3158 3156 3157 3158 3160 3161 3162 3163 3164 3165 3167 3168 3170 3170 3171 3172 3174 3174 3175 3176 3177 3177 3177 3178 3178 3178 3179 3179 3180 3180 3181 3180
3137 3140 3142 3143 3144 3142 3143 3144 3147 3147 3148 3149 3151 3154 3153 3154 3155 3155 3156 3157 3158 3161 3162 3163 3164 3166 3167 3168 3169 3171 3172 3173 3174 3175 3176 3176 3177 3177 3178 3179 3180 3180 3180 3181 3182 3182 3182 3182 3182
3136 3139 3142 3142 3141 3142 3141 3143 3144 3146 3148 3149 3151 3151 3152 3153 3154 3155 3156 3158 3159 3161 3163 3164 3165 3167 3168 3169 3170 3171 3173 3174 3174 3175 3176 3177 3177 3178 3179 3180 3181 3182 3182 3183 3183 3183 3183 3183 3183
3134 3138 3142 3140 3139 3142 3142 3143 3143 3146 3148 3149 3150 3152 3153 3153 3154 3156 3157 3158 3161 3163 3164 3166 3166 3168 3169 3171 3171 3172 3173 3174 3175 3176 3177 3177 3178 3179 3179 3180 3181 3182 3183 3183 3184 3184 3184 3184 3184
3134 3136 3138 3139 3139 3140 3142 3143 3143 3145 3147 3149 3150 3151 3152 3153 3155 3156 3157 3159 3160 3164 3165 3166 3168 3169 3170 3171 3172 3173 3174 3175 3176 3176 3177 3178 3179 3179 3180 3180 3181 3182 3183 3183 3184 3184 3184 3184 3184
3131 3134 3136 3137 3138 3139 3141 3142 3144 3146 3146 3148 3149 3150 3152 3153 3155 3156 3158 3159 3161 3164 3165 3166 3168 3169 3171 3172 3173 3174 3174 3175 3176 3177 3177 3178 3179 3180 3180 3181 3182 3183 3183 3184 3185 3185 3185 3185 3185
3129 3131 3132 3135 3137 3138 3140 3142 3144 3145 3146 3148 3148 3150 3152 3153 3155 3157 3158 3160 3161 3163 3164 3166 3168 3169 3171 3173 3174 3174 3175 3176 3176 3177 3178 3179 3179 3180 3181 3182 3182 3183 3183 3184 3185 3185 3186 3186 3186
3128 3130 3130 3132 3135 3137 3138 3141 3144 3145 3145 3146 3148 3149 3152 3153 3155 3156 3158 3159 3161 3162 3164 3166 3168 3169 3171 3172 3174 3175 3176 3177 3178 3178 3179 3179 3180 3181 3182 3183 3183 3184 3184 3185 3185 3186 3186 3187 3187
3125 3127 3128 3131 3134 3135 3137 3139 3141 3143 3144 3146 3146 3147 3151 3152 3154 3155 3157 3158 3160 3162 3164 3165 3167 3169 3170 3172 3173 3174 3176 3177 3178 3178 3179 3180 3181 3183 3183 3184 3185 3185 3186 3186 3187 3187 3187 3187 3187
3120 3124 3127 3132 3134 3132 3136 3137 3140 3142 3143 3144 3147 3147 3150 3151 3153 3155 3157 3158 3160 3162 3164 3165 3166 3168 3170 3171 3172 3174 3175 3177 3178 3178 3180 3181 3182 3184 3184 3185 3186 3186 3187 3187 3187 3188 3188 3188 3188
3115 3119 3126 3128 3129 3131 3134 3135 3138 3140 3141 3143 3146 3147 3149 3151 3153 3154 3156 3158 3160 3162 3164 3165 3166 3167 3169 3170 3172 3174 3175 3176 3177 3179 3181 3182 3183 3183 3184 3185 3185 3186 3187 3187 3187 3188 3188 3188 3188
3113 3117 3122 3123 3127 3129 3132 3134 3136 3139 3140 3141 3143 3146 3148 3150 3152 3154 3155 3157 3159 3161 3163 3164 3165 3167 3169 3170 3172 3174 3175 3176 3177 3179 3181 3182 3183 3183 3184 3185 3185 3185 3186 3186 3187 3187 3187 3188 3188
3110 3114 3118 3118 3125 3128 3129 3132 3135 3136 3138 3141 3141 3145 3147 3149 3150 3152 3154 3156 3157 3160 3162 3163 3165 3167 3168 3170 3171 3173 3174 3176 3178 3179 3180 3181 3182 3183 3183 3184 3184 3185 3185 3186 3186 3186 3186 3186 3186
3106 3111 3112 3115 3121 3124 3127 3129 3131 3133 3136 3139 3139 3142 3146 3148 3150 3151 3153 3155 3157 3159 3161 3162 3164 3166 3168 3169 3171 3173 3175 3176 3178 3179 3180 3181 3182 3182 3183 3183 3184 3184 3184 3185 3185 3185 3185 3185 3185
3105 3108 3109 3112 3116 3120 3125 3126 3127 3129 3134 3136 3139 3140 3143 3146 3148 3150 3151 3153 3156 3158 3159 3161 3163 3165 3166 3168 3170 3172 3174 3175 3177 3178 3180 3180 3180 3181 3181 3182 3182 3182 3182 3183 3183 3183 3183 3182 3182
3102 3104 3104 3107 3111 3116 3120 3121 3126 3127 3131 3133 3136 3138 3140 3142 3145 3147 3149 3152 3154 3156 3158 3160 3162 3163 3165 3167 3169 3171 3173 3174 3175 3177 3178 3179 3179 3180 3180 3180 3180 3180 3180 3180 3180 3180 3180 3180 3180
3096 3096 3099 3103 3107 3111 3116 3120 3122 3125 3128 3130 3133 3135 3138 3140 3142 3144 3147 3149 3152 3154 3156 3158 3160 3162 3164 3165 3167 3169 3171 3172 3173 3175 3176 3176 3177 3177 3177 3177 3178 3178 3178 3178 3178 3178 3177 3177 3176
3088 3095 3097 3097 3102 3106 3111 3115 3119 3121 3124 3126 3129 3131 3134 3137 3140 3142 3144 3146 3149 3151 3153 3155 3157 3159 3161 3163 3165 3167 3169 3170 3172 3172 3173 3174 3175 3175 3175 3176 3176 3175 3175 3175 3175 3174 3174 3173 3173
3092 3094 3096 3098 3100 3104 3106 3110 3114 3118 3120 3122 3124 3127 3130 3132 3135 3137 3140 3143 3145 3148 3150 3153 3155 3156 3158 3161 3163 3165 3167 3168 3169 3171 3172 3172 3172 3173 3173 3173 3173 3173 3172 3172 3171 3170 3170 3169 3168
3086 3090 3094 3093 3096 3100 3104 3106 3110 3113 3117 3118 3120 3122 3126 3128 3132 3135 3137 3140 3143 3145 3146 3148 3152 3154 3156 3158 3160 3162 3164 3165 3167 3168 3169 3170 3171 3170 3171 3171 3171 3170 3170 3170 3169 3169 3168 3167 3165
3080 3084 3089 3091 3094 3098 3101 3103 3106 3107 3110 3114 3116 3118 3121 3125 3128 3130 3133 3136 3139 3141 3143 3145 3148 3150 3152 3154 3156 3157 3159 3162 3164 3165 3166 3166 3167 3167 3168 3168 3168 3167 3166 3165 3165 3164 3164 3163 3161
3076 3082 3086 3087 3091 3094 3098 3098 3098 3099 3103 3107 3111 3114 3118 3120 3122 3126 3129 3132 3135 3137 3140 3141 3144 3146 3148 3151 3153 3154 3156 3158 3160 3162 3163 3164 3164 3164 3164 3164 3164 3163 3162 3162 3161 3161 3161 3160 3158
3076 3080 3082 3085 3089 3091 3091 3095 3091 3094 3093 3099 3105 3109 3112 3115 3118 3121 3124 3128 3131 3134 3136 3138 3140 3142 3145 3147 3149 3151 3152 3153 3156 3158 3159 3160 3160 3160 3161 3160 3159 3159 3158 3158 3157 3157 3156 3156 3155
3073 3077 3081 3083 3086 3087 3086 3089 3086 3086 3091 3095 3097 3102 3106 3110 3114 3117 3119 3122 3125 3128 3131 3134 3136 3138 3140 3142 3144 3146 3148 3149 3153 3154 3155 3156 3157 3157 3156 3156 3155 3155 3154 3154 3153 3153 3153 3152 3151
3065 3071 3076 3084 3084 3081 3082 3085 3083 3084 3087 3089 3093 3096 3100 3105 3109 3112 3114 3117 3120 3123 3125 3128 3130 3133 3135 3138 3140 3142 3145 3147 3149 3149 3150 3151 3152 3152 3152 3151 3151 3151 3150 3150 3150 3149 3149 3148 3146
3055 3062 3063 3074 3076 3075 3078 3073 3074 3081 3084 3085 3088 3091 3095 3098 3103 3106 3109 3111 3115 3118 3120 3122 3125 3128 3131 3133 3136 3138 3140 3142 3143 3144 3145 3146 3147 3147 3147 3147 3147 3146 3146 3146 3145 3145 3143 3142 3140
3051 3053 3063 3063 3064 3068 3067 3071 3074 3076 3079 3082 3083 3086 3090 3093 3097 3100 3103 3107 3110 3113 3115 3117 3119 3122 3125 3128 3130 3133 3135 3137 3139 3140 3141 3142 3142 3142 3142 3142 3142 3142 3142 3141 3140 3139 3137 3135 3132
3043 3053 3058 3057 3063 3065 3058 3061 3061 3069 3074 3076 3080 3083 3086 3090 3093 3096 3099 3102 3105 3107 3109 3111 3114 3117 3120 3123 3125 3128 3130 3132 3133 3135 3136 3136 3137 3137 3137 3137 3137 3137 3136 3135 3134 3132 3130 3127 3124
3035 3041 3046 3051 3051 3054 3058 3056 3059 3065 3069 3072 3075 3078 3080 3084 3087 3090 3093 3096 3099 3101 3103 3106 3109 3111 3113 3117 3119 3121 3124 3126 3128 3129 3130 3131 3131 3131 3132 3132 3132 3131 3130 3129 3128 3126 3123 3119 3116
3029 3034 3039 3041 3042 3045 3049 3051 3055 3058 3062 3066 3069 3070 3074 3077 3080 3084 3088 3090 3093 3095 3098 3101 3103 3106 3108 3111 3113 3115 3118 3120 3122 3124 3125 3125 3126 3126 3126 3126 3126 3125 3123 3122 3120 3118 3114 3110 3106
Wind_Speed
12 11 10 9 6 7 12 8 6 7 8 12 13 8 6 8 8 5 7 6 7 9 10 11 12 13 13 14 13 12 11 10 10 10 11 11 11 11 11 11 12 12 12 12 12 11 10 9 9
13 12 11 10 7 15 7 6 9 10 9 8 11 9 4 9 7 4 7 9 9 11 12 12 12 12 13 13 13 11 10 9 9 8 8 8 8 8 8 9 9 9 9 9 8 7 7 8 8
14 13 13 6 10 11 12 11 13 12 8 8 10 11 8 6 5 6 8 9 10 12 13 12 12 11 11 11 11 10 9 8 7 6 6 7 7 6 6 7 6 6 5 5 4 5 6 7 7
18 15 12 11 10 0 8 9 10 9 7 8 6 7 5 4 5 6 7 9 8 9 12 11 11 11 11 11 9 8 7 6 6 6 6 7 7 7 6 5 5 4 3 2 2 3 5 6 6
18 18 12 13 9 7 9 10 6 5 6 7 9 5 6 4 5 6 7 7 8 10 10 11 9 11 10 10 8 7 6 5 4 4 4 5 5 6 6 6 6 5 3 1 1 3 4 5 6
21 19 10 15 9 6 6 7 9 7 6 8 8 7 6 5 6 6 6 7 7 9 9 10 10 9 11 10 8 6 4 4 4 3 3 3 3 5 5 5 4 4 3 1 1 2 4 5 5
24 21 15 14 13 11 10 8 13 9 8 9 6 8 8 7 6 6 7 7 8 9 9 10 10 9 10 11 10 9 7 5 5 5 3 2 2 4 3 3 3 3 3 2 1 2 3 3 4
24 20 19 13 17 11 14 10 12 9 12 11 12 5 8 9 9 9 8 8 9 9 9 9 10 11 11 11 11 11 8 7 5 4 3 3 3 3 3 3 2 1 1 1 1 1 2 2 2
27 21 22 13 9 14 15 13 16 17 14 12 16 11 8 10 10 10 9 9 9 10 10 10 11 11 11 12 11 12 10 8 7 5 4 3 2 1 1 1 1 1 1 1 0 0 0 1 1
29 28 19 13 13 14 13 14 13 16 15 16 13 13 8 9 10 10 9 9 10 10 10 11 11 12 11 12 12 11 10 7 6 5 3 2 1 1 1 0 1 1 1 2 2 2 3 3 3
31 33 20 13 18 14 14 14 13 14 16 14 13 13 10 9 9 10 10 10 10 10 10 12 13 11 11 11 11 11 10 8 7 5 3 2 3 2 1 1 1 1 1 2 3 4 5 5 5
28 30 28 15 21 20 15 18 16 15 13 12 16 14 12 10 9 9 9 9 9 9 11 11 12 12 12 11 11 10 10 9 8 5 3 3 3 3 2 2 2 3 3 4 5 5 6 6 7
33 25 29 28 22 21 18 20 16 19 19 19 17 14 14 13 12 11 12 12 11 10 11 11 12 12 12 11 11 11 10 9 7 5 5 5 4 4 4 5 5 5 5 6 7 7 8 8 9
31 27 28 33 22 20 21 22 22 22 20 18 19 17 16 16 15 14 12 11 10 11 11 12 12 12 12 12 12 11 10 9 8 7 6 6 6 6 6 7 7 8 8 8 9 9 10 10 11
19 29 32 27 29 24 22 26 25 24 20 20 19 19 18 18 18 15 13 12 12 12 13 13 13 13 13 13 12 12 11 11 9 8 6 7 7 7 8 8 9 9 10 10 11 11 12 12 13
25 24 28 29 25 26 26 28 24 27 21 22 20 20 20 19 18 18 17 15 13 13 13 14 14 14 13 13 13 13 12 11 10 8 8 8 8 8 9 9 10 10 11 11 12 13 14 14 15
27 25 23 17 24 27 27 26 17 26 24 23 21 22 22 22 21 21 19 18 15 13 13 14 14 15 14 14 13 12 13 12 10 10 9 10 10 10 10 10 10 11 11 12 13 14 15 16 16
26 23 26 24 27 29 27 22 15 21 23 27 24 24 21 24 23 23 22 21 18 17 15 14 15 16 16 15 15 14 13 13 12 12 11 11 11 11 12 11 11 11 12 13 13 15 16 16 17
17 30 20 24 20 22 32 33 26 22 24 28 28 27 24 24 24 25 23 21 21 19 17 15 15 16 16 16 15 15 14 15 14 14 13 13 13 12 13 12 12 13 14 14 15 16 17 19 18
23 20 26 25 26 18 25 29 31 32 24 24 26 28 27 27 25 24 23 23 23 22 21 19 17 17 16 16 17 18 18 17 17 15 15 14 13 14 14 15 15 15 17 18 19 19 19 19 19
29 22 29 24 18 21 17 23 25 30 28 29 28 26 25 25 25 24 23 23 24 24 24 22 20 19 19 19 20 21 21 19 18 17 17 16 15 16 16 17 17 18 19 20 20 19 18 17 20
29 25 21 23 21 16 23 6 27 37 34 30 29 28 26 26 25 24 24 24 24 25 25 24 22 22 21 21 21 21 21 21 20 19 18 17 16 17 17 19 20 21 21 19 18 17 17 18 19
27 24 21 17 19 10 20 10 20 25 37 35 31 30 29 27 26 25 25 24 24 24 25 24 24 24 23 23 22 22 24 24 21 19 18 16 17 18 19 20 20 17 15 14 14 15 16 17 19
23 25 20 12 12 5 14 22 13 29 21 24 33 33 31 28 26 23 24 24 26 27 27 27 27 25 25 25 24 26 26 25 21 20 19 19 19 20 19 16 14 13 13 13 14 15 17 20 23
30 27 7 3 4 5 20 17 17 23 28 29 24 28 31 30 27 25 24 24 25 25 28 30 31 29 28 26 26 26 25 23 22 23 22 21 21 21 18 16 14 14 14 14 15 17 21 24 29
38 36 9 6 5 6 17 10 16 30 15 21 25 27 28 32 29 28 25 24 23 22 24 28 32 32 30 28 28 27 26 26 26 25 24 23 23 23 20 17 16 16 16 16 19 22 26 30 35
40 40 24 7 7 10 16 16 12 22 26 25 21 25 25 24 25 25 23 26 24 22 22 24 27 30 30 30 30 29 29 29 28 27 27 26 26 23 21 20 18 18 19 21 24 27 31 35 36
33 37 30 13 7 5 8 25 21 28 25 32 33 26 19 22 25 25 25 26 25 23 23 23 25 27 28 30 31 31 31 31 30 29 29 28 27 25 22 21 21 21 23 26 29 32 35 37 38
28 36 28 28 15 6 3 6 16 24 23 24 31 30 30 30 28 27 27 25 25 24 23 23 24 26 28 29 31 31 32 32 31 32 30 29 28 25 23 23 24 25 28 31 34 37 39 39 38
42 42 40 26 20 20 18 19 3 11 16 25 19 28 34 30 29 29 26 25 25 25 24 24 25 26 27 28 29 30 31 31 31 31 30 28 26 25 25 26 28 30 33 36 39 40 39 38 37
Wind_Direction
195 185 178 172 183 232 236 136 135 158 161 157 167 147 168 161 172 196 165 155 166 152 147 144 148 139 133 128 128 123 119 113 102 96 95 94 93 92 96 99 102 103 103 102 99 92 82 70 61
196 180 176 176 219 236 136 131 146 176 188 167 145 94 166 185 197 184 175 165 176 162 153 149 146 143 134 133 131 132 130 126 120 114 109 102 101 106 103 102 105 110 110 106 98 84 67 55 50
190 184 180 191 244 275 134 141 187 202 165 155 156 167 179 161 164 159 168 178 180 172 157 153 150 151 144 138 137 136 134 130 123 114 108 107 110 116 124 126 124 121 119 113 96 71 51 41 38
191 184 184 197 227 148 105 165 215 192 180 173 164 155 179 160 172 154 166 180 183 149 169 161 157 156 155 148 147 140 138 132 122 117 115 111 107 110 126 143 150 148 144 126 69 40 29 30 34
194 189 187 222 225 147 144 188 191 137 179 164 149 172 173 184 157 168 173 173 179 148 160 165 169 164 166 156 151 147 147 143 135 130 125 125 118 118 126 144 158 176 192 211 339 3 19 29 29
194 191 199 218 226 175 202 197 151 158 170 162 181 168 166 173 165 175 182 175 177 163 161 166 171 177 173 167 160 156 166 166 165 164 158 149 131 129 136 137 141 155 169 181 47 27 26 30 39
203 192 190 208 201 188 199 183 157 181 184 162 192 178 178 186 173 180 186 185 179 176 171 173 173 173 173 175 175 168 176 174 179 178 181 171 148 138 123 126 134 141 144 138 103 62 47 50 51
202 198 199 218 205 192 212 179 160 180 173 194 157 236 183 184 185 188 187 189 184 184 180 179 179 177 174 178 183 181 194 192 199 183 183 191 177 143 129 124 121 124 148 149 140 122 108 79 58
199 197 203 214 195 188 219 205 194 190 205 199 194 214 178 183 189 193 189 190 189 189 188 188 189 187 185 182 183 192 204 206 206 201 197 203 196 132 135 108 109 128 160 183 219 294 340 15 357
203 207 186 195 209 228 229 217 209 200 206 209 199 219 181 188 188 189 187 192 194 194 195 199 201 196 196 195 191 195 205 203 217 221 220 235 233 133 89 12 3 343 321 312 303 305 308 307 305
206 211 187 226 193 210 218 204 206 205 210 214 207 212 199 195 191 191 195 200 201 204 202 203 210 211 202 208 203 203 208 211 214 235 259 294 323 352 5 9 351 322 289 277 280 285 290 298 307
209 213 204 227 211 206 218 201 210 201 204 208 210 207 210 206 204 205 210 213 212 208 208 208 218 217 217 212 218 216 217 222 227 228 250 275 279 295 312 319 307 308 301 299 296 294 298 304 306
216 214 211 222 211 218 220 215 217 213 207 209 233 214 212 216 215 215 214 218 217 212 218 217 219 223 225 219 223 225 234 239 244 245 258 266 280 294 298 299 305 306 305 305 304 307 307 309 308
223 211 219 223 222 223 219 213 214 212 217 213 226 226 216 220 225 225 226 227 223 224 225 228 226 226 229 229 230 234 241 252 254 258 276 296 300 302 304 301 300 303 305 302 299 300 303 305 304
222 208 225 224 225 226 217 220 216 223 217 219 220 230 227 224 228 232 233 232 226 227 228 229 231 232 231 232 234 237 241 248 258 270 280 287 292 293 295 300 303 304 303 304 302 302 298 296 298
213 210 219 222 220 219 217 229 219 226 217 221 222 226 231 232 232 232 234 235 234 235 236 235 238 238 236 236 236 238 242 246 254 265 274 278 282 287 292 293 292 293 296 299 299 296 297 300 301
205 207 209 215 222 218 214 229 231 230 225 225 223 228 229 232 233 238 236 239 240 238 236 237 239 242 242 244 242 241 244 249 254 257 262 269 271 275 277 282 290 293 294 294 296 299 301 300 299
203 205 211 204 209 213 217 216 213 229 227 231 229 229 225 228 231 236 239 238 241 246 245 238 236 238 241 242 244 243 243 248 252 256 259 263 271 276 283 290 294 295 297 298 300 300 300 299 299
213 216 210 205 225 227 219 218 212 221 229 227 230 230 226 227 228 235 243 243 243 246 250 247 245 245 244 246 247 250 250 251 254 257 262 269 278 286 287 292 292 296 297 298 298 299 300 301 303
199 219 208 209 220 217 224 224 224 233 233 230 229 234 229 231 231 233 237 236 239 243 248 248 243 243 244 246 247 246 247 249 252 260 265 273 277 278 283 287 289 293 297 299 302 305 306 307 305
215 218 215 213 198 215 212 232 216 234 237 231 230 230 230 229 229 230 231 233 237 241 244 246 246 243 241 240 242 246 248 252 255 258 264 270 276 280 283 286 290 292 291 292 295 298 301 303 306
209 200 208 215 201 207 211 228 224 228 239 233 229 231 231 229 231 228 231 233 235 238 241 244 247 244 244 244 246 250 255 254 256 263 270 274 277 279 282 289 293 292 292 296 298 303 305 305 306
215 206 213 209 219 203 205 233 232 233 231 233 232 231 231 229 233 234 236 237 237 235 237 240 243 247 248 249 250 250 253 256 262 267 268 274 273 279 289 292 289 289 288 288 292 295 299 302 304
206 203 207 197 201 233 210 208 224 224 234 233 229 229 233 233 236 241 241 238 237 236 237 237 239 245 246 248 250 249 254 264 268 268 272 273 274 282 289 282 278 276 279 283 288 295 302 307 310
203 189 144 165 187 213 205 218 224 229 230 237 239 235 233 232 235 239 240 237 235 236 239 239 238 240 244 247 251 255 260 264 266 267 270 275 284 290 289 281 275 275 277 283 293 300 303 306 308
195 190 172 169 170 205 214 224 211 224 233 229 236 239 234 234 238 242 238 228 226 234 238 238 239 241 242 243 246 249 251 253 257 262 268 274 279 283 281 273 270 270 276 284 291 297 302 307 309
194 203 207 218 179 194 217 227 235 216 227 232 235 236 228 227 228 229 230 223 232 238 238 236 234 236 238 241 244 246 249 251 255 259 264 270 276 276 272 265 266 270 278 287 294 301 306 309 310
208 200 204 205 157 204 215 209 224 216 218 229 237 238 221 228 232 231 231 230 239 243 239 235 234 235 238 241 244 245 246 248 252 255 259 267 270 270 261 261 266 274 282 291 297 304 308 309 307
190 196 207 209 203 170 157 232 245 238 232 240 242 241 238 241 237 233 233 237 242 241 237 234 233 234 236 238 240 241 243 245 249 252 258 260 261 256 257 263 270 278 285 291 298 304 306 307 308
214 204 201 199 200 217 225 236 207 215 221 221 236 242 238 234 233 233 235 237 236 236 236 235 235 236 238 238 240 240 241 244 246 249 254 253 251 254 260 268 276 283 289 294 299 303 306 306 305